Year,Month,Day,Hour,Minute,Value (Times are PST for temperature in C)
2014,04,11,00,00,7.50
2014,04,11,00,01,7.50
2014,04,11,00,02,7.50
2014,04,11,00,03,7.50
2014,04,11,00,04,7.40
2014,04,11,00,05,7.40
2014,04,11,00,06,7.40
2014,04,11,00,07,7.50
2014,04,11,00,08,7.50
2014,04,11,00,09,7.50
2014,04,11,00,10,7.50
2014,04,11,00,11,7.50
2014,04,11,00,12,7.50
2014,04,11,00,13,7.60
2014,04,11,00,14,7.60
2014,04,11,00,15,7.60
2014,04,11,00,16,7.60
2014,04,11,00,17,7.60
2014,04,11,00,18,7.70
2014,04,11,00,19,7.70
2014,04,11,00,20,7.70
2014,04,11,00,21,7.70
2014,04,11,00,22,7.70
2014,04,11,00,23,7.70
2014,04,11,00,24,7.70
2014,04,11,00,25,7.70
2014,04,11,00,26,7.70
2014,04,11,00,27,7.70
2014,04,11,00,28,7.60
2014,04,11,00,29,7.60
2014,04,11,00,30,7.60
2014,04,11,00,31,7.60
2014,04,11,00,32,7.60
2014,04,11,00,33,7.60
2014,04,11,00,34,7.50
2014,04,11,00,35,7.60
2014,04,11,00,36,7.60
2014,04,11,00,37,7.60
2014,04,11,00,38,7.60
2014,04,11,00,39,7.60
2014,04,11,00,40,7.60
2014,04,11,00,41,7.60
2014,04,11,00,42,7.60
2014,04,11,00,43,7.50
2014,04,11,00,44,7.50
2014,04,11,00,45,7.40
2014,04,11,00,46,7.40
2014,04,11,00,47,7.40
2014,04,11,00,48,7.30
2014,04,11,00,49,7.30
2014,04,11,00,50,7.30
2014,04,11,00,51,7.30
2014,04,11,00,52,7.30
2014,04,11,00,53,7.20
2014,04,11,00,54,7.20
2014,04,11,00,55,7.20
2014,04,11,00,56,7.20
2014,04,11,00,57,7.20
2014,04,11,00,58,7.10
2014,04,11,00,59,7.10
2014,04,11,01,00,7.10
2014,04,11,01,01,7.10
2014,04,11,01,02,7.10
2014,04,11,01,03,7.10
2014,04,11,01,04,7.10
2014,04,11,01,05,7.10
2014,04,11,01,06,7.10
2014,04,11,01,07,7.10
2014,04,11,01,08,7.00
2014,04,11,01,09,7.00
2014,04,11,01,10,7.00
2014,04,11,01,11,6.90
2014,04,11,01,12,6.90
2014,04,11,01,13,6.80
2014,04,11,01,14,6.80
2014,04,11,01,15,6.80
2014,04,11,01,16,6.70
2014,04,11,01,17,6.70
2014,04,11,01,18,6.70
2014,04,11,01,19,6.60
2014,04,11,01,20,6.60
2014,04,11,01,21,6.60
2014,04,11,01,22,6.60
2014,04,11,01,23,6.50
2014,04,11,01,24,6.50
2014,04,11,01,25,6.50
2014,04,11,01,26,6.40
2014,04,11,01,27,6.40
2014,04,11,01,28,6.40
2014,04,11,01,29,6.40
2014,04,11,01,30,6.30
2014,04,11,01,31,6.30
2014,04,11,01,32,6.30
2014,04,11,01,33,6.20
2014,04,11,01,34,6.20
2014,04,11,01,35,6.20
2014,04,11,01,36,6.20
2014,04,11,01,37,6.20
2014,04,11,01,38,6.20
2014,04,11,01,39,6.20
2014,04,11,01,40,6.20
2014,04,11,01,41,6.10
2014,04,11,01,42,6.10
2014,04,11,01,43,6.10
2014,04,11,01,44,6.10
2014,04,11,01,45,6.10
2014,04,11,01,46,6.10
2014,04,11,01,47,6.00
2014,04,11,01,48,6.00
2014,04,11,01,49,6.00
2014,04,11,01,50,6.00
2014,04,11,01,51,6.00
2014,04,11,01,52,6.00
2014,04,11,01,53,6.10
2014,04,11,01,54,6.00
2014,04,11,01,55,6.10
2014,04,11,01,56,6.00
2014,04,11,01,57,6.00
2014,04,11,01,58,6.00
2014,04,11,01,59,6.00
2014,04,11,02,00,6.00
2014,04,11,02,01,5.90
2014,04,11,02,02,5.90
2014,04,11,02,03,5.90
2014,04,11,02,04,5.90
2014,04,11,02,05,5.80
2014,04,11,02,06,5.80
2014,04,11,02,07,5.80
2014,04,11,02,08,5.80
2014,04,11,02,09,5.80
2014,04,11,02,10,5.70
2014,04,11,02,11,5.70
2014,04,11,02,12,5.70
2014,04,11,02,13,5.70
2014,04,11,02,14,5.70
2014,04,11,02,15,5.70
2014,04,11,02,16,5.70
2014,04,11,02,17,5.70
2014,04,11,02,18,5.70
2014,04,11,02,19,5.70
2014,04,11,02,20,5.60
2014,04,11,02,21,5.70
2014,04,11,02,22,5.60
2014,04,11,02,23,5.60
2014,04,11,02,24,5.60
2014,04,11,02,25,5.60
2014,04,11,02,26,5.60
2014,04,11,02,27,5.60
2014,04,11,02,28,5.60
2014,04,11,02,29,5.60
2014,04,11,02,30,5.60
2014,04,11,02,31,5.60
2014,04,11,02,32,5.60
2014,04,11,02,33,5.70
2014,04,11,02,34,5.70
2014,04,11,02,35,5.70
2014,04,11,02,36,5.70
2014,04,11,02,37,5.70
2014,04,11,02,38,5.70
2014,04,11,02,39,5.70
2014,04,11,02,40,5.70
2014,04,11,02,41,5.70
2014,04,11,02,42,5.70
2014,04,11,02,43,5.60
2014,04,11,02,44,5.60
2014,04,11,02,45,5.60
2014,04,11,02,46,5.60
2014,04,11,02,47,5.60
2014,04,11,02,48,5.50
2014,04,11,02,49,5.50
2014,04,11,02,50,5.50
2014,04,11,02,51,5.50
2014,04,11,02,52,5.50
2014,04,11,02,53,5.50
2014,04,11,02,54,5.50
2014,04,11,02,55,5.40
2014,04,11,02,56,5.40
2014,04,11,02,57,5.40
2014,04,11,02,58,5.40
2014,04,11,02,59,5.40
2014,04,11,03,00,5.40
2014,04,11,03,01,5.40
2014,04,11,03,02,5.40
2014,04,11,03,03,5.40
2014,04,11,03,04,5.40
2014,04,11,03,05,5.40
2014,04,11,03,06,5.40
2014,04,11,03,07,5.40
2014,04,11,03,08,5.40
2014,04,11,03,09,5.40
2014,04,11,03,10,5.40
2014,04,11,03,11,5.40
2014,04,11,03,12,5.40
2014,04,11,03,13,5.40
2014,04,11,03,14,5.40
2014,04,11,03,15,5.30
2014,04,11,03,16,5.30
2014,04,11,03,17,5.30
2014,04,11,03,18,5.30
2014,04,11,03,19,5.30
2014,04,11,03,20,5.30
2014,04,11,03,21,5.30
2014,04,11,03,22,5.30
2014,04,11,03,23,5.30
2014,04,11,03,24,5.30
2014,04,11,03,25,5.30
2014,04,11,03,26,5.30
2014,04,11,03,27,5.30
2014,04,11,03,28,5.30
2014,04,11,03,29,5.30
2014,04,11,03,30,5.30
2014,04,11,03,31,5.30
2014,04,11,03,32,5.30
2014,04,11,03,33,5.30
2014,04,11,03,34,5.30
2014,04,11,03,35,5.30
2014,04,11,03,36,5.30
2014,04,11,03,37,5.30
2014,04,11,03,38,5.30
2014,04,11,03,39,5.30
2014,04,11,03,40,5.30
2014,04,11,03,41,5.30
2014,04,11,03,42,5.30
2014,04,11,03,43,5.30
2014,04,11,03,44,5.30
2014,04,11,03,45,5.30
2014,04,11,03,46,5.30
2014,04,11,03,47,5.40
2014,04,11,03,48,5.40
2014,04,11,03,49,5.40
2014,04,11,03,50,5.40
2014,04,11,03,51,5.40
2014,04,11,03,52,5.40
2014,04,11,03,53,5.40
2014,04,11,03,54,5.40
2014,04,11,03,55,5.40
2014,04,11,03,56,5.40
2014,04,11,03,57,5.40
2014,04,11,03,58,5.40
2014,04,11,03,59,5.40
2014,04,11,04,00,5.40
2014,04,11,04,01,5.40
2014,04,11,04,02,5.50
2014,04,11,04,03,5.50
2014,04,11,04,04,5.50
2014,04,11,04,05,5.50
2014,04,11,04,06,5.50
2014,04,11,04,07,5.60
2014,04,11,04,08,5.60
2014,04,11,04,09,5.60
2014,04,11,04,10,5.60
2014,04,11,04,11,5.60
2014,04,11,04,12,5.70
2014,04,11,04,13,5.70
2014,04,11,04,14,5.70
2014,04,11,04,15,5.70
2014,04,11,04,16,5.70
2014,04,11,04,17,5.70
2014,04,11,04,18,5.70
2014,04,11,04,19,5.70
2014,04,11,04,20,5.70
2014,04,11,04,21,5.70
2014,04,11,04,22,5.70
2014,04,11,04,23,5.80
2014,04,11,04,24,5.80
2014,04,11,04,25,5.80
2014,04,11,04,26,5.80
2014,04,11,04,27,5.80
2014,04,11,04,28,5.80
2014,04,11,04,29,5.80
2014,04,11,04,30,5.80
2014,04,11,04,31,5.80
2014,04,11,04,32,5.90
2014,04,11,04,33,5.90
2014,04,11,04,34,5.90
2014,04,11,04,35,5.90
2014,04,11,04,36,6.00
2014,04,11,04,37,6.00
2014,04,11,04,38,6.00
2014,04,11,04,39,6.00
2014,04,11,04,40,6.00
2014,04,11,04,41,6.10
2014,04,11,04,42,6.00
2014,04,11,04,43,6.00
2014,04,11,04,44,6.00
2014,04,11,04,45,6.00
2014,04,11,04,46,6.00
2014,04,11,04,47,6.00
2014,04,11,04,48,6.00
2014,04,11,04,49,6.00
2014,04,11,04,50,6.00
2014,04,11,04,51,6.00
2014,04,11,04,52,6.00
2014,04,11,04,53,5.90
2014,04,11,04,54,5.90
2014,04,11,04,55,5.90
2014,04,11,04,56,5.90
2014,04,11,04,57,5.90
2014,04,11,04,58,5.90
2014,04,11,04,59,5.80
2014,04,11,05,00,5.80
2014,04,11,05,01,5.80
2014,04,11,05,02,5.80
2014,04,11,05,03,5.80
2014,04,11,05,04,5.80
2014,04,11,05,05,5.80
2014,04,11,05,06,5.80
2014,04,11,05,07,5.80
2014,04,11,05,08,5.80
2014,04,11,05,09,5.80
2014,04,11,05,10,5.90
2014,04,11,05,11,5.90
2014,04,11,05,12,5.90
2014,04,11,05,13,5.90
2014,04,11,05,14,5.90
2014,04,11,05,15,5.90
2014,04,11,05,16,5.90
2014,04,11,05,17,5.80
2014,04,11,05,18,5.80
2014,04,11,05,19,5.80
2014,04,11,05,20,5.80
2014,04,11,05,21,5.80
2014,04,11,05,22,5.80
2014,04,11,05,23,5.80
2014,04,11,05,24,5.80
2014,04,11,05,25,5.80
2014,04,11,05,26,5.90
2014,04,11,05,27,5.90
2014,04,11,05,28,5.80
2014,04,11,05,29,5.80
2014,04,11,05,30,5.80
2014,04,11,05,31,5.80
2014,04,11,05,32,5.80
2014,04,11,05,33,5.80
2014,04,11,05,34,5.80
2014,04,11,05,35,5.80
2014,04,11,05,36,5.90
2014,04,11,05,37,5.90
2014,04,11,05,38,5.90
2014,04,11,05,39,5.90
2014,04,11,05,40,5.90
2014,04,11,05,41,5.90
2014,04,11,05,42,5.90
2014,04,11,05,43,5.90
2014,04,11,05,44,5.90
2014,04,11,05,45,5.90
2014,04,11,05,46,5.80
2014,04,11,05,47,5.80
2014,04,11,05,48,5.80
2014,04,11,05,49,5.80
2014,04,11,05,50,5.80
2014,04,11,05,51,5.80
2014,04,11,05,52,5.80
2014,04,11,05,53,5.80
2014,04,11,05,54,5.80
2014,04,11,05,55,5.80
2014,04,11,05,56,5.80
2014,04,11,05,57,5.80
2014,04,11,05,58,5.80
2014,04,11,05,59,5.80
2014,04,11,06,00,5.80
2014,04,11,06,01,5.80
2014,04,11,06,02,5.80
2014,04,11,06,03,5.80
2014,04,11,06,04,5.80
2014,04,11,06,05,5.80
2014,04,11,06,06,5.80
2014,04,11,06,07,5.80
2014,04,11,06,08,5.70
2014,04,11,06,09,5.70
2014,04,11,06,10,5.70
2014,04,11,06,11,5.70
2014,04,11,06,12,5.70
2014,04,11,06,13,5.70
2014,04,11,06,14,5.70
2014,04,11,06,15,5.60
2014,04,11,06,16,5.60
2014,04,11,06,17,5.60
2014,04,11,06,18,5.60
2014,04,11,06,19,5.60
2014,04,11,06,20,5.50
2014,04,11,06,21,5.50
2014,04,11,06,22,5.50
2014,04,11,06,23,5.50
2014,04,11,06,24,5.50
2014,04,11,06,25,5.50
2014,04,11,06,26,5.40
2014,04,11,06,27,5.40
2014,04,11,06,28,5.40
2014,04,11,06,29,5.40
2014,04,11,06,30,5.40
2014,04,11,06,31,5.40
2014,04,11,06,32,5.40
2014,04,11,06,33,5.30
2014,04,11,06,34,5.30
2014,04,11,06,35,5.30
2014,04,11,06,36,5.30
2014,04,11,06,37,5.20
2014,04,11,06,38,5.20
2014,04,11,06,39,5.20
2014,04,11,06,40,5.20
2014,04,11,06,41,5.20
2014,04,11,06,42,5.20
2014,04,11,06,43,5.10
2014,04,11,06,44,5.10
2014,04,11,06,45,5.10
2014,04,11,06,46,5.10
2014,04,11,06,47,5.10
2014,04,11,06,48,5.10
2014,04,11,06,49,5.10
2014,04,11,06,50,5.10
2014,04,11,06,51,5.20
2014,04,11,06,52,5.20
2014,04,11,06,53,5.20
2014,04,11,06,54,5.20
2014,04,11,06,55,5.20
2014,04,11,06,56,5.20
2014,04,11,06,57,5.20
2014,04,11,06,58,5.20
2014,04,11,06,59,5.20
2014,04,11,07,00,5.30
2014,04,11,07,01,5.30
2014,04,11,07,02,5.30
2014,04,11,07,03,5.30
2014,04,11,07,04,5.30
2014,04,11,07,05,5.30
2014,04,11,07,06,5.30
2014,04,11,07,07,5.30
2014,04,11,07,08,5.40
2014,04,11,07,09,5.40
2014,04,11,07,10,5.40
2014,04,11,07,11,5.40
2014,04,11,07,12,5.50
2014,04,11,07,13,5.50
2014,04,11,07,14,5.50
2014,04,11,07,15,5.50
2014,04,11,07,16,5.50
2014,04,11,07,17,5.60
2014,04,11,07,18,5.60
2014,04,11,07,19,5.60
2014,04,11,07,20,5.60
2014,04,11,07,21,5.60
2014,04,11,07,22,5.60
2014,04,11,07,23,5.60
2014,04,11,07,24,5.70
2014,04,11,07,25,5.70
2014,04,11,07,26,5.70
2014,04,11,07,27,5.80
2014,04,11,07,28,5.80
2014,04,11,07,29,5.80
2014,04,11,07,30,5.90
2014,04,11,07,31,5.90
2014,04,11,07,32,5.90
2014,04,11,07,33,6.00
2014,04,11,07,34,6.00
2014,04,11,07,35,6.10
2014,04,11,07,36,6.10
2014,04,11,07,37,6.20
2014,04,11,07,38,6.20
2014,04,11,07,39,6.20
2014,04,11,07,40,6.20
2014,04,11,07,41,6.20
2014,04,11,07,42,6.20
2014,04,11,07,43,6.20
2014,04,11,07,44,6.20
2014,04,11,07,45,6.20
2014,04,11,07,46,6.20
2014,04,11,07,47,6.20
2014,04,11,07,48,6.20
2014,04,11,07,49,6.20
2014,04,11,07,50,6.20
2014,04,11,07,51,6.20
2014,04,11,07,52,6.20
2014,04,11,07,53,6.20
2014,04,11,07,54,6.20
2014,04,11,07,55,6.20
2014,04,11,07,56,6.20
2014,04,11,07,57,6.20
2014,04,11,07,58,6.20
2014,04,11,07,59,6.20
2014,04,11,08,00,6.20
2014,04,11,08,01,6.20
2014,04,11,08,02,6.20
2014,04,11,08,03,6.30
2014,04,11,08,04,6.30
2014,04,11,08,05,6.30
2014,04,11,08,06,6.30
2014,04,11,08,07,6.30
2014,04,11,08,08,6.30
2014,04,11,08,09,6.30
2014,04,11,08,10,6.30
2014,04,11,08,11,6.40
2014,04,11,08,12,6.40
2014,04,11,08,13,6.40
2014,04,11,08,14,6.40
2014,04,11,08,15,6.50
2014,04,11,08,16,6.50
2014,04,11,08,17,6.50
2014,04,11,08,18,6.60
2014,04,11,08,19,6.60
2014,04,11,08,20,6.70
2014,04,11,08,21,6.70
2014,04,11,08,22,6.70
2014,04,11,08,23,6.80
2014,04,11,08,24,6.90
2014,04,11,08,25,6.90
2014,04,11,08,26,6.90
2014,04,11,08,27,7.00
2014,04,11,08,28,7.00
2014,04,11,08,29,7.10
2014,04,11,08,30,7.10
2014,04,11,08,31,7.10
2014,04,11,08,32,7.20
2014,04,11,08,33,7.20
2014,04,11,08,34,7.30
2014,04,11,08,35,7.30
2014,04,11,08,36,7.30
2014,04,11,08,37,7.40
2014,04,11,08,38,7.40
2014,04,11,08,39,7.50
2014,04,11,08,40,7.60
2014,04,11,08,41,7.70
2014,04,11,08,42,7.70
2014,04,11,08,43,7.70
2014,04,11,08,44,7.80
2014,04,11,08,45,7.80
2014,04,11,08,46,7.90
2014,04,11,08,47,8.00
2014,04,11,08,48,8.10
2014,04,11,08,49,8.10
2014,04,11,08,50,8.20
2014,04,11,08,51,8.30
2014,04,11,08,52,8.30
2014,04,11,08,53,8.40
2014,04,11,08,54,8.50
2014,04,11,08,55,8.60
2014,04,11,08,56,8.70
2014,04,11,08,57,8.80
2014,04,11,08,58,8.90
2014,04,11,08,59,9.00
2014,04,11,09,00,9.10
2014,04,11,09,01,9.20
2014,04,11,09,02,9.30
2014,04,11,09,03,9.30
2014,04,11,09,04,9.40
2014,04,11,09,05,9.40
2014,04,11,09,06,9.40
2014,04,11,09,07,9.50
2014,04,11,09,08,9.60
2014,04,11,09,09,9.60
2014,04,11,09,10,9.70
2014,04,11,09,11,9.70
2014,04,11,09,12,9.70
2014,04,11,09,13,9.80
2014,04,11,09,14,9.80
2014,04,11,09,15,9.80
2014,04,11,09,16,9.80
2014,04,11,09,17,9.80
2014,04,11,09,18,9.80
2014,04,11,09,19,9.80
2014,04,11,09,20,9.80
2014,04,11,09,21,9.80
2014,04,11,09,22,9.80
2014,04,11,09,23,9.80
2014,04,11,09,24,9.80
2014,04,11,09,25,9.80
2014,04,11,09,26,9.80
2014,04,11,09,27,9.80
2014,04,11,09,28,9.80
2014,04,11,09,29,9.80
2014,04,11,09,30,9.80
2014,04,11,09,31,9.80
2014,04,11,09,32,9.80
2014,04,11,09,33,9.90
2014,04,11,09,34,10.00
2014,04,11,09,35,10.00
2014,04,11,09,36,10.10
2014,04,11,09,37,10.20
2014,04,11,09,38,10.20
2014,04,11,09,39,10.30
2014,04,11,09,40,10.30
2014,04,11,09,41,10.40
2014,04,11,09,42,10.40
2014,04,11,09,43,10.50
2014,04,11,09,44,10.50
2014,04,11,09,45,10.50
2014,04,11,09,46,10.40
2014,04,11,09,47,10.40
2014,04,11,09,48,10.30
2014,04,11,09,49,10.30
2014,04,11,09,50,10.20
2014,04,11,09,51,10.20
2014,04,11,09,52,10.20
2014,04,11,09,53,10.20
2014,04,11,09,54,10.20
2014,04,11,09,55,10.20
2014,04,11,09,56,10.20
2014,04,11,09,57,10.20
2014,04,11,09,58,10.30
2014,04,11,09,59,10.30
2014,04,11,10,00,10.30
2014,04,11,10,01,10.30
2014,04,11,10,02,10.30
2014,04,11,10,03,10.20
2014,04,11,10,04,10.20
2014,04,11,10,05,10.20
2014,04,11,10,06,10.30
2014,04,11,10,07,10.30
2014,04,11,10,08,10.30
2014,04,11,10,09,10.30
2014,04,11,10,10,10.30
2014,04,11,10,11,10.40
2014,04,11,10,12,10.40
2014,04,11,10,13,10.40
2014,04,11,10,14,10.40
2014,04,11,10,15,10.40
2014,04,11,10,16,10.40
2014,04,11,10,17,10.40
2014,04,11,10,18,10.30
2014,04,11,10,19,10.30
2014,04,11,10,20,10.20
2014,04,11,10,21,10.20
2014,04,11,10,22,10.20
2014,04,11,10,23,10.20
2014,04,11,10,24,10.20
2014,04,11,10,25,10.30
2014,04,11,10,26,10.30
2014,04,11,10,27,10.30
2014,04,11,10,28,10.30
2014,04,11,10,29,10.40
2014,04,11,10,30,10.40
2014,04,11,10,31,10.40
2014,04,11,10,32,10.50
2014,04,11,10,33,10.50
2014,04,11,10,34,10.50
2014,04,11,10,35,10.50
2014,04,11,10,36,10.50
2014,04,11,10,37,10.40
2014,04,11,10,38,10.40
2014,04,11,10,39,10.40
2014,04,11,10,40,10.40
2014,04,11,10,41,10.40
2014,04,11,10,42,10.40
2014,04,11,10,43,10.40
2014,04,11,10,44,10.50
2014,04,11,10,45,10.50
2014,04,11,10,46,10.60
2014,04,11,10,47,10.60
2014,04,11,10,48,10.70
2014,04,11,10,49,10.70
2014,04,11,10,50,10.70
2014,04,11,10,51,10.80
2014,04,11,10,52,10.80
2014,04,11,10,53,10.80
2014,04,11,10,54,10.80
2014,04,11,10,55,10.80
2014,04,11,10,56,10.80
2014,04,11,10,57,10.80
2014,04,11,10,58,10.80
2014,04,11,10,59,10.80
2014,04,11,11,00,10.80
2014,04,11,11,01,10.80
2014,04,11,11,02,10.80
2014,04,11,11,03,10.80
2014,04,11,11,04,10.80
2014,04,11,11,05,10.90
2014,04,11,11,06,10.90
2014,04,11,11,07,10.90
2014,04,11,11,08,10.90
2014,04,11,11,09,11.00
2014,04,11,11,10,11.00
2014,04,11,11,11,11.00
2014,04,11,11,12,11.00
2014,04,11,11,13,11.00
2014,04,11,11,14,11.00
2014,04,11,11,15,11.00
2014,04,11,11,16,11.00
2014,04,11,11,17,11.00
2014,04,11,11,18,11.00
2014,04,11,11,19,11.00
2014,04,11,11,20,11.00
2014,04,11,11,21,11.00
2014,04,11,11,22,11.00
2014,04,11,11,23,11.10
2014,04,11,11,24,11.10
2014,04,11,11,25,11.10
2014,04,11,11,26,11.10
2014,04,11,11,27,11.10
2014,04,11,11,28,11.20
2014,04,11,11,29,11.20
2014,04,11,11,30,11.20
2014,04,11,11,31,11.20
2014,04,11,11,32,11.20
2014,04,11,11,33,11.20
2014,04,11,11,34,11.20
2014,04,11,11,35,11.20
2014,04,11,11,36,11.20
2014,04,11,11,37,11.20
2014,04,11,11,38,11.30
2014,04,11,11,39,11.30
2014,04,11,11,40,11.30
2014,04,11,11,41,11.40
2014,04,11,11,42,11.40
2014,04,11,11,43,11.40
2014,04,11,11,44,11.50
2014,04,11,11,45,11.50
2014,04,11,11,46,11.50
2014,04,11,11,47,11.50
2014,04,11,11,48,11.50
2014,04,11,11,49,11.40
2014,04,11,11,50,11.40
2014,04,11,11,51,11.40
2014,04,11,11,52,11.40
2014,04,11,11,53,11.40
2014,04,11,11,54,11.40
2014,04,11,11,55,11.30
2014,04,11,11,56,11.30
2014,04,11,11,57,11.30
2014,04,11,11,58,11.30
2014,04,11,11,59,11.30
2014,04,11,12,00,11.30
2014,04,11,12,01,11.20
2014,04,11,12,02,11.20
2014,04,11,12,03,11.20
2014,04,11,12,04,11.20
2014,04,11,12,05,11.20
2014,04,11,12,06,11.20
2014,04,11,12,07,11.20
2014,04,11,12,08,11.20
2014,04,11,12,09,11.20
2014,04,11,12,10,11.20
2014,04,11,12,11,11.20
2014,04,11,12,12,11.20
2014,04,11,12,13,11.20
2014,04,11,12,14,11.20
2014,04,11,12,15,11.20
2014,04,11,12,16,11.20
2014,04,11,12,17,11.20
2014,04,11,12,18,11.20
2014,04,11,12,19,11.20
2014,04,11,12,20,11.20
2014,04,11,12,21,11.20
2014,04,11,12,22,11.20
2014,04,11,12,23,11.20
2014,04,11,12,24,11.30
2014,04,11,12,25,11.30
2014,04,11,12,26,11.30
2014,04,11,12,27,11.30
2014,04,11,12,28,11.30
2014,04,11,12,29,11.30
2014,04,11,12,30,11.30
2014,04,11,12,31,11.40
2014,04,11,12,32,11.40
2014,04,11,12,33,11.40
2014,04,11,12,34,11.50
2014,04,11,12,35,11.50
2014,04,11,12,36,11.50
2014,04,11,12,37,11.50
2014,04,11,12,38,11.50
2014,04,11,12,39,11.50
2014,04,11,12,40,11.50
2014,04,11,12,41,11.50
2014,04,11,12,42,11.50
2014,04,11,12,43,11.50
2014,04,11,12,44,11.50
2014,04,11,12,45,11.40
2014,04,11,12,46,11.50
2014,04,11,12,47,11.50
2014,04,11,12,48,11.50
2014,04,11,12,49,11.50
2014,04,11,12,50,11.40
2014,04,11,12,51,11.50
2014,04,11,12,52,11.50
2014,04,11,12,53,11.50
2014,04,11,12,54,11.50
2014,04,11,12,55,11.60
2014,04,11,12,56,11.60
2014,04,11,12,57,11.50
2014,04,11,12,58,11.50
2014,04,11,12,59,11.40
2014,04,11,13,00,11.40
2014,04,11,13,01,11.50
2014,04,11,13,02,11.50
2014,04,11,13,03,11.50
2014,04,11,13,04,11.60
2014,04,11,13,05,11.60
2014,04,11,13,06,11.60
2014,04,11,13,07,11.70
2014,04,11,13,08,11.70
2014,04,11,13,09,11.70
2014,04,11,13,10,11.70
2014,04,11,13,11,11.70
2014,04,11,13,12,11.70
2014,04,11,13,13,11.70
2014,04,11,13,14,11.70
2014,04,11,13,15,11.70
2014,04,11,13,16,11.70
2014,04,11,13,17,11.70
2014,04,11,13,18,11.70
2014,04,11,13,19,11.70
2014,04,11,13,20,11.80
2014,04,11,13,21,11.80
2014,04,11,13,22,11.80
2014,04,11,13,23,11.80
2014,04,11,13,24,11.90
2014,04,11,13,25,11.90
2014,04,11,13,26,11.90
2014,04,11,13,27,11.80
2014,04,11,13,28,11.80
2014,04,11,13,29,11.80
2014,04,11,13,30,11.80
2014,04,11,13,31,11.80
2014,04,11,13,32,11.80
2014,04,11,13,33,11.80
2014,04,11,13,34,11.80
2014,04,11,13,35,11.80
2014,04,11,13,36,11.80
2014,04,11,13,37,11.80
2014,04,11,13,38,11.80
2014,04,11,13,39,11.80
2014,04,11,13,40,11.80
2014,04,11,13,41,11.80
2014,04,11,13,42,11.90
2014,04,11,13,43,11.90
2014,04,11,13,44,12.00
2014,04,11,13,45,12.10
2014,04,11,13,46,12.10
2014,04,11,13,47,12.20
2014,04,11,13,48,12.30
2014,04,11,13,49,12.40
2014,04,11,13,50,12.50
2014,04,11,13,51,12.50
2014,04,11,13,52,12.60
2014,04,11,13,53,12.60
2014,04,11,13,54,12.70
2014,04,11,13,55,12.70
2014,04,11,13,56,12.70
2014,04,11,13,57,12.80
2014,04,11,13,58,12.80
2014,04,11,13,59,12.80
2014,04,11,14,00,12.80
2014,04,11,14,01,12.90
2014,04,11,14,02,12.90
2014,04,11,14,03,12.90
2014,04,11,14,04,12.90
2014,04,11,14,05,12.90
2014,04,11,14,06,13.00
2014,04,11,14,07,13.00
2014,04,11,14,08,13.00
2014,04,11,14,09,13.00
2014,04,11,14,10,13.00
2014,04,11,14,11,13.00
2014,04,11,14,12,13.00
2014,04,11,14,13,12.90
2014,04,11,14,14,12.90
2014,04,11,14,15,12.90
2014,04,11,14,16,12.90
2014,04,11,14,17,12.90
2014,04,11,14,18,12.90
2014,04,11,14,19,12.80
2014,04,11,14,20,12.80
2014,04,11,14,21,12.70
2014,04,11,14,22,12.60
2014,04,11,14,23,12.50
2014,04,11,14,24,12.50
2014,04,11,14,25,12.40
2014,04,11,14,26,12.40
2014,04,11,14,27,12.40
2014,04,11,14,28,12.40
2014,04,11,14,29,12.40
2014,04,11,14,30,12.50
2014,04,11,14,31,12.60
2014,04,11,14,32,12.60
2014,04,11,14,33,12.60
2014,04,11,14,34,12.60
2014,04,11,14,35,12.70
2014,04,11,14,36,12.70
2014,04,11,14,37,12.70
2014,04,11,14,38,12.80
2014,04,11,14,39,12.80
2014,04,11,14,40,12.80
2014,04,11,14,41,12.80
2014,04,11,14,42,12.70
2014,04,11,14,43,12.70
2014,04,11,14,44,12.60
2014,04,11,14,45,12.60
2014,04,11,14,46,12.50
2014,04,11,14,47,12.50
2014,04,11,14,48,12.50
2014,04,11,14,49,12.50
2014,04,11,14,50,12.50
2014,04,11,14,51,12.50
2014,04,11,14,52,12.50
2014,04,11,14,53,12.50
2014,04,11,14,54,12.50
2014,04,11,14,55,12.50
2014,04,11,14,56,12.60
2014,04,11,14,57,12.70
2014,04,11,14,58,12.70
2014,04,11,14,59,12.80
2014,04,11,15,00,12.90
2014,04,11,15,01,13.00
2014,04,11,15,02,13.00
2014,04,11,15,03,13.10
2014,04,11,15,04,13.10
2014,04,11,15,05,13.20
2014,04,11,15,06,13.20
2014,04,11,15,07,13.20
2014,04,11,15,08,13.20
2014,04,11,15,09,13.20
2014,04,11,15,10,13.20
2014,04,11,15,11,13.20
2014,04,11,15,12,13.20
2014,04,11,15,13,13.10
2014,04,11,15,14,13.20
2014,04,11,15,15,13.20
2014,04,11,15,16,13.20
2014,04,11,15,17,13.20
2014,04,11,15,18,13.20
2014,04,11,15,19,13.20
2014,04,11,15,20,13.20
2014,04,11,15,21,13.20
2014,04,11,15,22,13.20
2014,04,11,15,23,13.20
2014,04,11,15,24,13.20
2014,04,11,15,25,13.10
2014,04,11,15,26,13.10
2014,04,11,15,27,13.10
2014,04,11,15,28,13.10
2014,04,11,15,29,13.10
2014,04,11,15,30,13.10
2014,04,11,15,31,13.10
2014,04,11,15,32,13.10
2014,04,11,15,33,13.10
2014,04,11,15,34,13.20
2014,04,11,15,35,13.20
2014,04,11,15,36,13.30
2014,04,11,15,37,13.30
2014,04,11,15,38,13.30
2014,04,11,15,39,13.30
2014,04,11,15,40,13.30
2014,04,11,15,41,13.30
2014,04,11,15,42,13.30
2014,04,11,15,43,13.30
2014,04,11,15,44,13.30
2014,04,11,15,45,13.30
2014,04,11,15,46,13.30
2014,04,11,15,47,13.20
2014,04,11,15,48,13.10
2014,04,11,15,49,13.10
2014,04,11,15,50,13.10
2014,04,11,15,51,13.10
2014,04,11,15,52,13.00
2014,04,11,15,53,13.00
2014,04,11,15,54,13.10
2014,04,11,15,55,13.10
2014,04,11,15,56,13.10
2014,04,11,15,57,13.10
2014,04,11,15,58,13.10
2014,04,11,15,59,13.10
2014,04,11,16,00,13.10
2014,04,11,16,01,13.00
2014,04,11,16,02,13.00
2014,04,11,16,03,13.00
2014,04,11,16,04,13.00
2014,04,11,16,05,13.00
2014,04,11,16,06,12.90
2014,04,11,16,07,13.00
2014,04,11,16,08,13.00
2014,04,11,16,09,13.00
2014,04,11,16,10,13.10
2014,04,11,16,11,13.10
2014,04,11,16,12,13.10
2014,04,11,16,13,13.10
2014,04,11,16,14,13.00
2014,04,11,16,15,13.00
2014,04,11,16,16,13.00
2014,04,11,16,17,12.90
2014,04,11,16,18,12.90
2014,04,11,16,19,12.90
2014,04,11,16,20,12.90
2014,04,11,16,21,12.90
2014,04,11,16,22,12.90
2014,04,11,16,23,12.90
2014,04,11,16,24,12.90
2014,04,11,16,25,13.00
2014,04,11,16,26,13.00
2014,04,11,16,27,13.00
2014,04,11,16,28,13.10
2014,04,11,16,29,13.10
2014,04,11,16,30,13.00
2014,04,11,16,31,13.00
2014,04,11,16,32,13.00
2014,04,11,16,33,12.90
2014,04,11,16,34,12.80
2014,04,11,16,35,12.70
2014,04,11,16,36,12.70
2014,04,11,16,37,12.60
2014,04,11,16,38,12.60
2014,04,11,16,39,12.60
2014,04,11,16,40,12.60
2014,04,11,16,41,12.70
2014,04,11,16,42,12.70
2014,04,11,16,43,12.70
2014,04,11,16,44,12.70
2014,04,11,16,45,12.80
2014,04,11,16,46,12.90
2014,04,11,16,47,13.00
2014,04,11,16,48,13.20
2014,04,11,16,49,13.20
2014,04,11,16,50,13.30
2014,04,11,16,51,13.40
2014,04,11,16,52,13.40
2014,04,11,16,53,13.40
2014,04,11,16,54,13.40
2014,04,11,16,55,13.40
2014,04,11,16,56,13.40
2014,04,11,16,57,13.30
2014,04,11,16,58,13.30
2014,04,11,16,59,13.30
2014,04,11,17,00,13.20
2014,04,11,17,01,13.20
2014,04,11,17,02,13.10
2014,04,11,17,03,13.10
2014,04,11,17,04,13.10
2014,04,11,17,05,13.10
2014,04,11,17,06,13.00
2014,04,11,17,07,13.00
2014,04,11,17,08,12.90
2014,04,11,17,09,12.90
2014,04,11,17,10,12.80
2014,04,11,17,11,12.80
2014,04,11,17,12,12.70
2014,04,11,17,13,12.60
2014,04,11,17,14,12.50
2014,04,11,17,15,12.50
2014,04,11,17,16,12.40
2014,04,11,17,17,12.40
2014,04,11,17,18,12.40
2014,04,11,17,19,12.40
2014,04,11,17,20,12.40
2014,04,11,17,21,12.50
2014,04,11,17,22,12.50
2014,04,11,17,23,12.50
2014,04,11,17,24,12.60
2014,04,11,17,25,12.60
2014,04,11,17,26,12.50
2014,04,11,17,27,12.50
2014,04,11,17,28,12.60
2014,04,11,17,29,12.60
2014,04,11,17,30,12.50
2014,04,11,17,31,12.60
2014,04,11,17,32,12.60
2014,04,11,17,33,12.60
2014,04,11,17,34,12.60
2014,04,11,17,35,12.70
2014,04,11,17,36,12.70
2014,04,11,17,37,12.70
2014,04,11,17,38,12.70
2014,04,11,17,39,12.70
2014,04,11,17,40,12.70
2014,04,11,17,41,12.70
2014,04,11,17,42,12.80
2014,04,11,17,43,12.80
2014,04,11,17,44,12.90